AFL333 YSSY-YBBN

Flight info

Callsign AFL333
Flight time N/A
Altitude 33000
Route KEVIN7/16L OLSEM Y193 BANDA H252 BN
Aircraft T154/M-SDGRWY/S

Departure

Time 2026-05-05 03:33
Airport Sydney Kingsford Smith International Airport (YSSY)

Arrival

Time N/A
Airport Brisbane International Airport (YBBN)
Time Latitude Longitude Altitude Speed Heading
2026-05-05 02:44 -33.93576 151.17894 31 ft 0 kts 101°
2026-05-05 03:23 -33.93575 151.17880 31 ft 2 kts 92°
2026-05-05 03:23 -33.93572 151.17864 31 ft 2 kts 118°
2026-05-05 03:23 -33.93562 151.17850 31 ft 2 kts 136°
2026-05-05 03:23 -33.93550 151.17841 31 ft 2 kts 155°
2026-05-05 03:24 -33.93537 151.17836 31 ft 2 kts 175°
2026-05-05 03:24 -33.93527 151.17836 31 ft 0 kts 189°
2026-05-05 03:24 -33.93518 151.17837 31 ft 0 kts 191°
2026-05-05 03:26 -33.93527 151.17836 31 ft 5 kts 191°
2026-05-05 03:26 -33.93597 151.17822 31 ft 16 kts 189°
2026-05-05 03:26 -33.93712 151.17793 31 ft 17 kts 195°
2026-05-05 03:26 -33.93744 151.17783 31 ft 1 kts 195°
2026-05-05 03:27 -33.93796 151.17767 31 ft 14 kts 193°
2026-05-05 03:27 -33.93898 151.17778 31 ft 14 kts 168°
2026-05-05 03:27 -33.93998 151.17804 31 ft 14 kts 168°
2026-05-05 03:27 -33.94110 151.17835 31 ft 20 kts 168°
2026-05-05 03:28 -33.94266 151.17873 31 ft 23 kts 169°
2026-05-05 03:28 -33.94420 151.17912 31 ft 20 kts 177°
2026-05-05 03:28 -33.94537 151.17886 31 ft 17 kts 171°
2026-05-05 03:28 -33.94673 151.17921 31 ft 20 kts 169°
2026-05-05 03:29 -33.94812 151.17956 31 ft 20 kts 168°
2026-05-05 03:29 -33.94970 151.17998 31 ft 24 kts 167°
2026-05-05 03:29 -33.95089 151.18039 31 ft 13 kts 137°
2026-05-05 03:29 -33.95093 151.18149 31 ft 14 kts 77°
2026-05-05 03:30 -33.95068 151.18283 31 ft 17 kts 78°
2026-05-05 03:30 -33.95042 151.18430 31 ft 18 kts 78°
2026-05-05 03:30 -33.95016 151.18578 31 ft 18 kts 78°
2026-05-05 03:30 -33.94989 151.18723 31 ft 18 kts 77°
2026-05-05 03:31 -33.94977 151.18813 31 ft 5 kts 108°
2026-05-05 03:31 -33.95005 151.18840 31 ft 5 kts 165°
2026-05-05 03:31 -33.95028 151.18846 31 ft 0 kts 170°
2026-05-05 03:32 -33.95030 151.18846 31 ft 2 kts 170°
2026-05-05 03:32 -33.95159 151.18878 31 ft 50 kts 167°
2026-05-05 03:32 -33.95782 151.19041 31 ft 128 kts 168°
2026-05-05 03:32 -33.96865 151.19324 95 ft 181 kts 173°
2026-05-05 03:33 -33.98078 151.19682 662 ft 191 kts 168°
2026-05-05 03:33 -33.99219 151.20442 1158 ft 210 kts 135°
2026-05-05 03:33 -33.99959 151.21936 1748 ft 223 kts 114°
2026-05-05 03:33 -34.00530 151.23596 2594 ft 220 kts 115°
2026-05-05 03:34 -34.01242 151.25061 3337 ft 218 kts 140°
2026-05-05 03:34 -34.02349 151.26205 4096 ft 216 kts 144°
2026-05-05 03:34 -34.03459 151.27278 4615 ft 214 kts 145°
2026-05-05 03:34 -34.04599 151.28354 4878 ft 226 kts 145°
2026-05-05 03:35 -34.05816 151.29509 5337 ft 232 kts 144°
2026-05-05 03:35 -34.07026 151.30688 6096 ft 225 kts 144°
2026-05-05 03:35 -34.08203 151.31838 6726 ft 226 kts 144°
2026-05-05 03:35 -34.09434 151.33038 7084 ft 249 kts 143°
2026-05-05 03:36 -34.10822 151.34398 7282 ft 290 kts 141°
2026-05-05 03:36 -34.11963 151.36272 7914 ft 289 kts 112°
2026-05-05 03:36 -34.12311 151.38472 8472 ft 288 kts 85°
2026-05-05 03:36 -34.11737 151.40683 8753 ft 296 kts 52°
2026-05-05 03:37 -34.10467 151.42381 9405 ft 290 kts 40°
2026-05-05 03:37 -34.08995 151.43955 9618 ft 306 kts 40°
2026-05-05 03:37 -34.07496 151.45657 10121 ft 310 kts 43°
2026-05-05 03:37 -34.05949 151.47185 10691 ft 303 kts 22°
2026-05-05 03:38 -34.04076 151.47974 11182 ft 303 kts 13°
2026-05-05 03:38 -34.01999 151.48648 11455 ft 330 kts
2026-05-05 03:38 -33.99815 151.49258 12285 ft 338 kts
2026-05-05 03:38 -33.97689 151.49838 13823 ft 322 kts
2026-05-05 03:39 -33.95681 151.50444 15430 ft 304 kts 10°
2026-05-05 03:39 -33.93695 151.51065 16216 ft 314 kts 10°
2026-05-05 03:39 -33.91560 151.51739 16691 ft 335 kts 11°
2026-05-05 03:39 -33.89323 151.52458 17738 ft 335 kts 11°
2026-05-05 03:40 -33.87281 151.53126 18893 ft 330 kts 11°
2026-05-05 03:40 -33.85131 151.53834 19830 ft 333 kts 11°
2026-05-05 03:40 -33.82968 151.54540 20472 ft 345 kts 11°
2026-05-05 03:40 -33.80734 151.55281 20912 ft 363 kts 11°
2026-05-05 03:41 -33.78396 151.56032 21112 ft 386 kts 10°
2026-05-05 03:41 -33.75903 151.56830 21610 ft 399 kts 10°
2026-05-05 03:41 -33.73364 151.57667 22415 ft 404 kts 12°
2026-05-05 03:41 -33.70768 151.58522 22866 ft 417 kts 10°
2026-05-05 03:42 -33.68056 151.59381 23113 ft 435 kts 11°
2026-05-05 03:42 -33.65337 151.60274 24055 ft 426 kts 13°
2026-05-05 03:42 -33.62828 151.61737 25214 ft 430 kts 27°
2026-05-05 03:42 -33.60464 151.63660 26425 ft 425 kts 28°
2026-05-05 03:43 -33.58290 151.65462 26965 ft 432 kts 27°
2026-05-05 03:44 -33.49137 151.72582 30344 ft 414 kts 13°
2026-05-05 03:44 -33.46486 151.73584 31149 ft 401 kts
2026-05-05 03:44 -33.43776 151.74397 31733 ft 406 kts
2026-05-05 03:44 -33.40999 151.75273 32127 ft 415 kts
2026-05-05 03:45 -33.38215 151.76175 32511 ft 417 kts
2026-05-05 03:45 -33.35399 151.77094 32780 ft 418 kts
2026-05-05 03:45 -33.32599 151.77998 32885 ft 421 kts
2026-05-05 03:45 -33.29748 151.78915 32990 ft 426 kts
2026-05-05 03:46 -33.26862 151.79843 33099 ft 432 kts
2026-05-05 03:46 -33.23983 151.80771 33099 ft 435 kts
2026-05-05 03:46 -33.21013 151.81725 33098 ft 449 kts
2026-05-05 03:46 -33.17945 151.82704 33128 ft 464 kts
2026-05-05 03:47 -33.14791 151.83717 33140 ft 478 kts
2026-05-05 03:47 -33.11504 151.84775 33129 ft 483 kts
2026-05-05 03:47 -33.05106 151.86850 33075 ft 476 kts
2026-05-05 03:48 -32.98723 151.88895 33080 ft 477 kts
2026-05-05 03:48 -32.92308 151.90951 33085 ft 476 kts
2026-05-05 03:49 -32.85852 151.93010 33001 ft 480 kts